Location: *
(58.7167°N, 26.1833°E)
Time: 11:36:08
(UTC+00:00)

Cosmos 2151 Rocket - Pass Details

Date: 25 August 2019
Orbit: 617 x 643 km, 82.5° (Epoch: 22 September)

Event Time Altitude Azimuth Distance (km) Brightness Sun altitude
Exits shadow 19:50:30 23° 161° (SSE) 1,362 4.7 -14.6°
Maximum altitude 19:53:03 50° 96° (E) 812 3.9 -14.8°
Drops below altitude 10° 19:57:22 10° 21° (NNE) 2,020 6.6 -15.1°
Sets 19:59:39 0° 16° (NNE) 2,928 7.6 -15.3°
